Change the Weather History Date:

Friday, November 2, 2012

  Actual Average Record
Temperature  
Mean Temperature 48 °F -  
Max Temperature 58 °F 51 °F 72 °F (2008)
Min Temperature 30 °F 29 °F 3 °F (2004)
Degree Days  
Heating Degree Days 18    
Moisture  
Dew Point 17 °F    
Average Humidity 31    
Maximum Humidity 72    
Minimum Humidity 12    
Precipitation  
Precipitation 0.00 in - - ()
Sea Level Pressure  
Sea Level Pressure 29.88 in    
Wind  
Wind Speed 8 mph (NNE)    
Max Wind Speed 13 mph    
Max Gust Speed -    
Visibility 10 miles    
Events      
Averages and records for this station are not official NWS values.
T = Trace of Precipitation, MM = Missing Value Source: NWS Daily Summary

Daily Weather History Graph

Daily Weather History Graph

Search for Another Location

Airport or City:

Trip Planner

Search our weather history database for the weather conditions in past years. The results will help you decide how hot, cold, wet, or windy it might be!

Date:

Astronomy

Nov. 02, 2012 Rise Set
Actual Time 7:28 AM MDT 5:56 PM MDT
Civil Twilight 7:00 AM MDT 6:24 PM MDT
Nautical Twilight 6:28 AM MDT 6:56 PM MDT
Astronomical Twilight 5:57 AM MDT 7:27 PM MDT
Moon 8:47 PM MDT (11/2) 10:49 AM MDT (11/2)
Length of Visible Light 11h 24m
Length of Day
10h 28m
Waning Gibbous, 87% of the Moon is Illuminated
Nov 2
Waning Gibbous
Nov 6
Last Quarter
Nov 13
New
Nov 20
First Quarter
Nov 28
Full

Hourly Weather History & Observations

Time (MDT) Temp. Windchill Dew Point Humidity Pressure Visibility Wind Dir Wind Speed Gust Speed Precip Events Conditions
12:55 AM 46.0 °F 40.2 °F 16.7 °F 31% 29.77 in 10.0 mi North 12.7 mph - N/A   Clear
1:55 AM 53.1 °F - 12.2 °F 20% 29.75 in 10.0 mi NNW 9.2 mph - N/A   Partly Cloudy
2:55 AM 54.7 °F - 10.8 °F 17% 29.75 in 10.0 mi NNE 9.2 mph - N/A   Clear
3:55 AM 57.2 °F - 5.2 °F 12% 29.73 in 10.0 mi ENE 8.1 mph - N/A   Clear
4:55 AM 56.1 °F - 5.9 °F 13% 29.75 in 10.0 mi Variable 5.8 mph - N/A   Partly Cloudy
5:55 AM 52.0 °F - 7.0 °F 16% 29.78 in 10.0 mi NNW 3.5 mph - N/A   Clear
6:55 AM 52.5 °F - 4.3 °F 14% 29.81 in 10.0 mi NW 4.6 mph - N/A   Clear
7:55 AM 48.2 °F - 9.9 °F 21% 29.89 in 10.0 mi NNE 6.9 mph - N/A   Clear
8:55 AM 49.6 °F - 13.8 °F 24% 29.91 in 10.0 mi NE 11.5 mph - N/A   Clear
9:55 AM 51.8 °F - 18.7 °F 27% 29.90 in 10.0 mi North 9.2 mph - N/A   Clear
10:55 AM 55.6 °F - 18.5 °F 23% 29.89 in 10.0 mi NNE 10.4 mph - N/A   Partly Cloudy
11:55 AM 57.9 °F - 18.3 °F 21% 29.87 in 10.0 mi ENE 6.9 mph - N/A   Scattered Clouds
12:55 PM 57.6 °F - 16.0 °F 20% 29.86 in 10.0 mi Variable 3.5 mph - N/A   Scattered Clouds
1:55 PM 58.3 °F - 13.8 °F 17% 29.84 in 10.0 mi South 6.9 mph - N/A   Partly Cloudy
2:55 PM 57.7 °F - 17.6 °F 21% 29.83 in 10.0 mi NNE 6.9 mph - N/A   Clear
3:55 PM 54.5 °F - 23.2 °F 30% 29.84 in 10.0 mi East 3.5 mph - N/A   Partly Cloudy
4:55 PM 53.4 °F - 23.7 °F 32% 29.85 in 10.0 mi East 3.5 mph - N/A   Clear
5:55 PM 48.9 °F - 25.2 °F 40% 29.89 in 10.0 mi Calm Calm - N/A   Clear
6:55 PM 44.8 °F 41.0 °F 25.7 °F 47% 29.95 in 10.0 mi North 6.9 mph - N/A   Clear
7:55 PM 39.0 °F 36.8 °F 25.9 °F 59% 30.02 in 10.0 mi North 3.5 mph - N/A   Scattered Clouds
8:55 PM 40.8 °F 38.8 °F 25.3 °F 54% 30.04 in 10.0 mi WSW 3.5 mph - N/A   Overcast
9:55 PM 39.7 °F - 24.8 °F 55% 30.04 in 10.0 mi Calm Calm - N/A   Clear
10:55 PM 37.8 °F - 25.0 °F 60% 30.05 in 10.0 mi Calm Calm - N/A   Clear
11:55 PM 30.9 °F 24.3 °F 23.0 °F 72% 30.08 in 10.0 mi North 6.9 mph - N/A   Clear